Location: Assche-ter-Heiden
(50.9174°N, 4.1574°E)
Time: 13:23:43
(UTC+00:00)

ADEOS Rocket - Pass Details

Date: 20 January 2020
Orbit: 859 x 1306 km, 98.7° (Epoch: 21 February)

Event Time Altitude Azimuth Distance (km) Brightness Sun altitude
Rises 04:38:02 0° 132° (SE) 3,430 6.5 -27.5°
Reaches altitude 10° 04:40:33 10° 123° (ESE) 2,496 5.8 -27.1°
Maximum altitude 04:45:25 34° 61° (ENE) 1,420 4.3 -26.3°
Drops below altitude 10° 04:50:27 10° 359° (N) 2,603 5.2 -25.5°
Sets 04:53:09 0° 350° (N) 3,598 5.9 -25.1°
